{"data":{"norad_id":66782,"intl_designator":"2025-276DX","name":"LEMUR-2-FINNIAN","alt_names":[],"object_type":"PAYLOAD","status":"ACTIVE","operator":null,"country":"US","launch_date":"2025-11-28","launch_site_code":"AFWTR","launch_vehicle":null,"mission":null,"orbit_class":"UNKNOWN","rcs_meters":null,"size_class":null,"mass_kg":null,"dimensions":null,"purposes":["earth_obs"],"wikipedia_slug":null,"has_3d_model":false,"image_url":null,"decayed_at":null,"tle_current":{"epoch":"2026-05-25T03:15:43.782624Z","epoch_age_seconds":64119,"freshness":"FRESH","line1":"1 66782U 25276DX  26145.13592341  .00005765  00000+0  46732-3 0  9994","line2":"2 66782  97.5243 216.8724 0007290 162.5064 197.6412 15.00040071 16547","mean_motion":15.00040071,"eccentricity":0.000729,"inclination_deg":97.5243,"raan_deg":216.8724,"arg_perigee_deg":162.5064,"mean_anomaly_deg":197.6412,"bstar":0.00046732,"rev_number":1654,"period_min":95.997435524507,"perigee_km":561.70982284943,"apogee_km":571.83550113662,"semimajor_km":6944.909661993,"source":"CELESTRAK","updated_at":"2026-05-25T13:38:13.575670Z"}}}